Regional Weather Roundup
Issued by NWS

Home | Current Version | Previous Version | Graphics & Text | Print | Product List | Glossary On
Versions: 1 2 3 4 5 6 7 8 9 10 11 12 13 14 15 16 17 18 19 20 21 22 23 24 25 26 27 28 29 30 31 32 33 34 35 36 37 38 39 40 41 42 43 44 45 46 47 48 49 50
000
ASUS45 KCYS 032210
RWRWY

WYOMING REGIONAL WEATHER ROUNDUP
NATIONAL WEATHER SERVICE CHEYENNE WY
300 PM MST SAT DEC 03 2016

NOTE:  "FAIR" INDICATES FEW OR NO CLOUDS BELOW 12,000 FEET
WITH NO SIGNIFICANT WEATHER AND/OR OBSTRUCTIONS TO VISIBILITY.

WYZ001-032300-
YELLOWSTONE NATIONAL PARK

CITY           SKY/WX    TMP DP  RH WIND       PRES   REMARKS
LK YELLOWSTONE   N/A     17  12  80 VRB6      30.05R WCI   9
W YELLOWSTONE  NOT AVBL

$$
WYZ002>013-054>058-071-098>099-032300-
NORTHERN WYOMING

CITY           SKY/WX    TMP DP  RH WIND       PRES   REMARKS
JACKSON        CLOUDY    25  19  80 S13       30.09S WCI  13
CODY           FAIR      37   8  30 W17G32    29.94  WCI  27
GREYBULL       PTSUNNY   39  14  36 SE7       29.96S WCI  34
WORLAND        FAIR      39  15  37 SE6       29.96R WCI  35
SHERIDAN       CLOUDY    42  17  36 W14G20    29.90R
BUFFALO        CLOUDY    40  13  33 SE3       29.90R
GILLETTE       FAIR      39  23  52 NW14      29.89R WCI  31
HULETT         CLOUDY    34  28  80 SW7       29.89R WCI  28
NEWCASTLE      FAIR      34  21  60 NW7       29.93R WCI  28

$$
WYZ014>020-022>026-101>103-032300-
CENTRAL WYOMING

CITY           SKY/WX    TMP DP  RH WIND       PRES   REMARKS
BIG PINEY      PTSUNNY   28  13  53 N16       30.06R WCI  16
PINEDALE       FAIR      27  14  59 NW20      30.06S WCI  13
DUBOIS         CLOUDY    28  10  47 NW15G25   29.99R WCI  17
LANDER         FAIR      35  13  40 SW9       29.96R WCI  28
RIVERTON       FAIR      38   8  29 NW30G41   29.95R WCI  26
CASPER         CLOUDY    38  12  34 W14       29.95R WCI  30
DOUGLAS        CLOUDY    38  13  35 W17G30    29.94R WCI  28

$$
WYZ021-027>030-104>119-032300-
SOUTHERN WYOMING

CITY           SKY/WX    TMP DP  RH WIND       PRES   REMARKS
EVANSTON       CLOUDY    24  13  62 W15       30.15R WCI  11
FORT BRIDGER   PTCLDY    28  16  59 W25G38    30.14R WCI  14
ROCK SPRINGS   CLOUDY    25  15  66 W22G31    30.08R WCI  10
DIXON          CLOUDY    28  15  59 SW12      30.12R WCI  18
RAWLINS        CLOUDY    26  12  55 W15G30    30.01F WCI  14
SARATOGA       CLOUDY    27  14  59 SW15G23   30.03F WCI  15
LARAMIE        PTSUNNY   27   7  42 W16       29.95S WCI  15
CHEYENNE       CLOUDY    33  10  38 W30G40    29.93S WCI  19
TORRINGTON     FAIR      40  10  29 W23G32    29.94R WCI  30
PINE BLUFFS    MOCLDY    37  12  35 W24G35    29.95R WCI  26

$$



USA.gov is the U.S. government's official web portal to all federal, state and local government web resources and services.